• Join FlightAware (Why Join?)
  • Login
  • US Flag GB Flag 
05:34 EDT


 

Airport Tracker/Info


-or-


 

Live Flight TrackerFlight Track Log ✈ N865JM ✈ 01-Feb-2014 ✈ KPBI - KIPT

Flight Track Log - Related Links

Times and Time Zones

All times are in EST time to prevent confusion due to time zone crossing. See the N865JM flight status page for this flight to view local times or setup timezone preferences in your user account.

Time Position Orientation Groundspeed Altitude Reporting Facility
EST Latitude Longitude Course Direction KTS MPH feet Rate Location/Type
15:42 26.6803 -80.0558 73° East 189 217 1,700  Level Miami Center
15:43 26.6964 -79.9958 73° East 217 250 4,500 3,180 Climbing Miami Center
15:44 26.7561 -79.9278 45° Northeast 256 295 8,100 3,240 Climbing Miami Center
15:45 26.8203 -79.8594 44° Northeast 288 331 11,000 2,460 Climbing Miami Center
15:46 26.8700 -79.7839 54° Northeast 320 368 13,100 1,500 Climbing Miami Center
15:47 26.9386 -79.6878 51° Northeast 349 402 14,000 900 Climbing Miami Center
15:48 26.9989 -79.5958 54° Northeast 358 412 14,900 1,740 Climbing Miami Center
15:49 27.0569 -79.5042 55° Northeast 365 420 17,500 2,100 Climbing Miami Center
15:50 27.1353 -79.4522 31° Northeast 359 413 19,100 2,100 Climbing Miami Center
15:51 27.2442 -79.4289 11° North 354 407 21,700 2,220 Climbing Miami Center
15:52 27.3531 -79.4125 North 360 414 23,600 1,620 Climbing Miami Center
15:53 27.4619 -79.3917 10° North 375 432 25,000 1,260 Climbing Miami Center
15:54 27.5669 -79.3658 12° North 386 444 26,200 1,200 Climbing Miami Center
15:55 27.6675 -79.3444 11° North 392 451 27,500 1,320 Climbing Miami Center
15:56 27.7931 -79.3214 North 402 463 28,900 1,200 Climbing Miami Center
15:57 27.9000 -79.2956 12° North 407 468 29,900 1,020 Climbing Miami Center
15:58 28.0175 -79.2700 11° North 413 475 31,000 900 Climbing Miami Center
15:59 28.1347 -79.2442 11° North 413 475 31,800 780 Climbing Miami Center
16:00 28.2436 -79.2158 13° North 425 489 32,600 720 Climbing Miami Center
16:01 28.3631 -79.1947 North 431 496 33,300 660 Climbing Miami Center
16:02 28.4825 -79.1711 10° North 431 496 34,000 600 Climbing Miami Center
16:03 28.6036 -79.1525 North 431 496 34,600 720 Climbing Miami Center
16:04 28.7272 -79.1289 10° North 431 496 35,500 720 Climbing Miami Center
16:05 28.8467 -79.1053 10° North 431 496 36,100 600 Climbing Miami Center
16:06 28.9681 -79.0792 11° North 431 496 36,700 420 Climbing Miami Center
16:07 29.0894 -79.0578 North 431 496 37,000 60 Climbing Miami Center
16:08 29.2108 -79.0294 12° North 431 496 36,900  Descending Miami Center
16:09 29.3383 -79.0058 North 442 509 37,000  Climbing Miami Center
16:11 29.5886 -78.9783 North 465 535 37,000  Level Jacksonville Center
16:12 29.7283 -78.9753 North 435 501 37,000  Level Jacksonville Center
16:13 29.8517 -78.9822 357° North 435 501 37,000  Level Jacksonville Center
16:14 29.9686 -78.9872 358° North 426 490 37,000  Level Jacksonville Center
16:15 30.0922 -78.9964 356° North 431 496 37,000  Level Jacksonville Center
16:16 30.2111 -78.9989 359° North 431 496 37,000  Level Jacksonville Center
16:17 30.3453 -79.0103 356° North 432 497 37,000  Level Jacksonville Center
16:18 30.4664 -79.0125 359° North 444 511 37,000  Level Jacksonville Center
16:19 30.5853 -79.0078 North 425 489 37,000  Level Jacksonville Center
16:20 30.7083 -79.0053 North 433 498 37,000  Level Jacksonville Center
16:21 30.8314 -79.0000 North 438 504 37,000  Level Jacksonville Center
16:22 30.9458 -78.9906 North 444 511 37,000  Level Jacksonville Center
16:23 31.0617 -78.9614 12° North 444 511 37,000  Level Jacksonville Center
16:24 31.1819 -78.9297 13° North 439 505 37,000  Level Jacksonville Center
16:25 31.3039 -78.8956 13° North 451 519 37,000  Level Jacksonville Center
16:26 31.4278 -78.8536 16° North 451 519 37,000  Level Jacksonville Center
16:27 31.5456 -78.8169 15° North 451 519 37,000  Level Jacksonville Center
16:28 31.6653 -78.7750 17° North 451 519 37,000  Level Jacksonville Center
16:29 31.7872 -78.7353 15° North 451 519 37,000  Level Jacksonville Center
16:30 31.9092 -78.6956 15° North 451 519 37,000  Level Jacksonville Center
16:31 32.0308 -78.6558 15° North 451 519 37,000  Level Jacksonville Center
16:32 32.1528 -78.6133 16° North 451 519 37,000  Level Jacksonville Center
16:33 32.2747 -78.5781 14° North 451 519 37,000  Level Jacksonville Center
16:34 32.3944 -78.5381 16° North 451 519 37,000  Level Jacksonville Center
16:35 32.5158 -78.4903 18° North 451 519 37,000 -60 Level Jacksonville Center
16:36 32.6419 -78.4569 13° North 451 519 36,900  Descending Jacksonville Center
16:37 32.7636 -78.4117 17° North 451 519 37,000  Climbing Jacksonville Center
16:38 32.8853 -78.3733 15° North 451 519 37,000  Level Jacksonville Center
16:39 33.0092 -78.3325 15° North 451 519 37,000  Level Jacksonville Center
16:41 33.3125 -78.2303 16° North 460 529 37,000  Level Washington Center
16:42 33.4364 -78.1869 16° North 460 529 37,000  Level Washington Center
16:43 33.5625 -78.1486 14° North 460 529 37,000  Level Washington Center
16:44 33.6969 -78.1028 16° North 460 529 37,000  Level Washington Center
16:45 33.8125 -78.0636 16° North 460 529 37,000  Level Washington Center
16:46 33.9511 -78.0178 15° North 460 529 37,000  Level Washington Center
16:47 34.0689 -77.9711 18° North 467 537 37,000  Level Washington Center
16:48 34.1950 -77.9294 15° North 467 537 37,000  Level Washington Center
16:49 34.3378 -77.8833 15° North 467 537 37,000  Level Washington Center
16:50 34.4656 -77.8489 13° North 467 537 37,000  Level Washington Center
16:51 34.5914 -77.8197 11° North 462 532 37,000  Level Washington Center
16:52 34.7192 -77.7878 12° North 462 532 37,000  Level Washington Center
16:53 34.8303 -77.7556 13° North 462 532 37,000  Level Washington Center
16:54 34.9583 -77.7233 12° North 462 532 37,000  Level Washington Center
16:55 35.0861 -77.6936 11° North 462 532 37,000  Level Washington Center
16:56 35.2139 -77.6614 12° North 462 532 37,000  Level Washington Center
16:57 35.3375 -77.6289 12° North 462 532 37,000  Level Washington Center
16:58 35.4633 -77.5989 11° North 457 526 37,000  Level Washington Center
16:59 35.5889 -77.5714 10° North 457 526 37,000  Level Washington Center
17:00 35.7142 -77.5669 North 452 520 37,000  Level Washington Center
17:01 35.8372 -77.5650 North 441 507 37,000  Level Washington Center
17:02 35.9667 -77.5603 North 441 507 37,000  Level Washington Center
17:03 36.0897 -77.5583 North 441 507 37,000  Level Washington Center
17:04 36.2147 -77.5819 351° North 441 507 37,000  Level Washington Center
17:05 36.3331 -77.6083 350° North 441 507 37,000  Level Washington Center
17:06 36.4600 -77.6372 350° North 438 504 37,000  Level Washington Center
17:07 36.5806 -77.6664 349° North 432 497 37,000 -120 Level Washington Center
17:08 36.7008 -77.6956 349° North 432 497 36,800 -600 Descending Washington Center
17:09 36.8214 -77.7247 349° North 432 497 35,800 -1,020 Descending Washington Center
17:10 36.9461 -77.7542 349° North 432 497 34,800 -1,020 Descending Washington Center
17:11 37.0686 -77.7836 349° North 443 510 33,800 -960 Descending Washington Center
17:12 37.1911 -77.8106 350° North 448 516 33,000 -420 Descending Washington Center
17:13 37.3136 -77.8403 349° North 448 516 33,000  Level Washington Center
17:14 37.4300 -77.8672 350° North 443 510 33,000  Level Washington Center
17:15 37.5506 -77.8944 350° North 443 510 33,000  Level Washington Center
17:16 37.6689 -77.9242 349° North 437 503 33,000  Level Washington Center
17:17 37.7872 -77.9514 350° North 432 497 33,000 -120 Level Washington Center
17:18 37.9036 -77.9761 350° North 426 490 32,800 -660 Descending Washington Center
17:19 38.0239 -78.0064 349° North 426 490 31,700 -1,080 Descending Washington Center
17:20 38.1400 -78.0364 349° North 426 490 30,800 -1,260 Descending Washington Center
17:21 38.2625 -78.0669 349° North 432 497 29,200 -1,800 Descending Washington Center
17:22 38.3828 -78.0947 350° North 437 503 27,200 -1,140 Descending Washington Center
17:23 38.5031 -78.1228 350° North 442 509 27,000 -120 Descending Washington Center
17:24 38.6233 -78.1533 349° North 442 509 27,000  Level Washington Center
17:25 38.7397 -78.1814 349° North 431 496 27,000 -300 Level Washington Center
17:26 38.8583 -78.1908 356° North 426 490 26,500 -540 Descending Washington Center
17:27 38.9825 -78.1311 20° North 433 498 26,000 -420 Descending Washington Center
17:28 39.1008 -78.0578 26° Northeast 448 516 25,700 -600 Descending Washington Center
17:30 39.3250 -77.9244 25° Northeast 478 550 24,300 -840 Descending New York Center
17:31 39.4442 -77.8503 26° Northeast 484 557 23,300 -1,020 Descending New York Center
17:32 39.5656 -77.7761 25° Northeast 484 557 22,300 -1,020 Descending New York Center
17:33 39.6825 -77.7014 26° Northeast 479 551 21,300 -660 Descending New York Center
17:34 39.8100 -77.6247 25° Northeast 473 544 21,000 -360 Descending New York Center
17:35 39.9206 -77.5544 26° Northeast 452 520 20,600 -1,260 Descending New York Center
17:36 40.0200 -77.4936 25° Northeast 447 514 18,500 -2,100 Descending New York Center
17:37 40.1447 -77.4269 22° Northeast 435 501 16,500 -1,620 Descending New York Center
17:38 40.2475 -77.3794 19° North 428 493 15,300 -1,200 Descending New York Center
17:39 40.3650 -77.3281 18° North 410 472 14,200 -1,080 Descending New York Center
17:40 40.4700 -77.2753 21° North 405 466 13,200 -600 Descending New York Center
17:41 40.5567 -77.1769 41° Northeast 400 460 13,100 -60 Descending New York Center
17:42 40.6431 -77.0811 40° Northeast 400 460 13,100 -60 Level New York Center
17:43 40.7319 -76.9769 42° Northeast 414 476 13,000 -60 Descending New York Center
17:44 40.8228 -76.8728 41° Northeast 419 482 13,000 -420 Level New York Center
17:45 40.9156 -76.7739 39° Northeast 424 488 12,200 -1,380 Descending New York Center
17:46 41.0067 -76.6994 32° Northeast 407 468 10,300 -1,320 Descending New York Center
17:47 41.0789 -76.6314 35° Northeast 343 395 9,600 -1,380 Descending New York Center
17:48 41.1422 -76.5706 36° Northeast 289 333 7,600 -2,040 Descending New York Center
17:49 41.2089 -76.5294 25° Northeast 271 312 5,600 -1,680 Descending New York Center
17:50 41.2658 -76.5564 340° North 224 258 4,300 -720 Descending New York Center
17:51 41.2925 -76.6058 306° West 180 207 4,200 -300 Descending New York Center
17:52 41.2831 -76.6711 259° West 142 163 3,700 -420 Descending New York Center
17:53 41.2739 -76.7311 259° West 157 181 3,400 -540 Descending New York Center
17:54 41.2656 -76.7744 256° West 150 173 2,700 -660 Descending New York Center
17:55 41.2564 -76.8289 257° West 144 166 2,100 -600 Descending New York Center
17:57 41.2333 -76.9167 270° West  Level FlightAware Approximate